ドゥ・トイト-ハートレー彗星

79P/du Toit-Hartley (2013)

English version
Home page
Updated on June 11, 2016

---------------------------------------------------------------------

・ プロフィール

・ 軌道要素

Epoch 2013 Aug. 16.0 TT = JDT 2456520.5
T 2013 Aug. 23.29116 TT                                 Nakano
q   1.1238071            (2000.0)            P               Q
n   0.19493761     Peri.  281.68802     -0.92356085     +0.37964056
a   2.9458160      Node   280.64198     -0.32696384     -0.85315448
e   0.6185074      Incl.    3.14559     -0.20032475     -0.35777154
P   5.06
From 190 observations 1986 Dec. 27-2013 Feb. 7, mean residual 0".7.
     Nongravitational parameters A1 = -0.14, A2 = +0.0006.

・ 光度変化

        m1 = 15.5 + 5 logΔ + 10.0 log r(t + 20)

---------------------------------------------------------------------

軌道要素はM.P.E.C. 2015-M77に掲載されたものです。
光度グラフはComet for Windowsで作成したものです。

---------------------------------------------------------------------

Copyright(C) Seiichi Yoshida (comet@aerith.net). All rights reserved.